FALCON 9 DEB (48491 NORAD) Tracking and Keplerian Element Data

This shows tracking and keplerian element data for the satellite.

Feedback or suggestion? Click here.




ElementValue
Catalog48491
NameFALCON 9 DEB
Epoch Orbit446
Epoch Day156.90703003
Epoch Year2021
RAAN79.598
Inclination53.03
Eccentricity0.0010105
Argument of Perigee256.2592
Mean Anonmoly103.7331
Mean Motion16.4483533
Decay Rate0.08090187
L11 48491U 21040BR 21156.90703003 .08090187 12457-4 21769-3 0 9994
L22 48491 53.0300 79.5980 0010105 256.2592 103.7331 16.44835330 4464

Live tracking and technical data element details for FALCON 9 DEB (NORAD 48491). FALCON 9 DEB can be tracked NOW for your location showing map with azimuth and elevation plus other details from your city location.

Track the satellite on the map from your city or location and see movement details for azimuth, elevation, latitude, longitude, range, height, and movement on the map or in text.







IsCatalogInMostPopularTable: catalog: 48491, numindb: 23
Update: records affected: 1



GetName: 48491 FALCON 9 DEB

Hit Count: updated at: Tue, 03 Aug 2021 23:44:34 GMT